Snowfall_Accumulation
0.0 0.0 0.0 0.0 0.0 0.0 0.0 0.0 0.0 0.0 0.0 0.0 0.0 0.0 0.0 0.0 0.0 0.0 0.0 0.0 0.0 0.0 0.0 0.0 0.0 0.0 0.0 0.0 0.0 0.0 0.0 0.0 0.0 0.0 0.0 0.0 0.0 0.0 0.0 0.0 0.0 0.0 0.0 0.0 0.0
0.0 0.0 0.0 0.0 0.0 0.0 0.0 0.0 0.0 0.0 0.0 0.0 0.0 0.0 0.0 0.0 0.0 0.0 0.0 0.0 0.0 0.0 0.0 0.0 0.0 0.0 0.0 0.0 0.0 0.0 0.0 0.0 0.0 0.0 0.0 0.0 0.0 0.0 0.0 0.0 0.0 0.0 0.0 0.0 0.0
0.0 0.0 0.0 0.0 0.0 0.0 0.0 0.0 0.0 0.0 0.0 0.0 0.0 0.0 0.0 0.0 0.0 0.0 0.0 0.0 0.0 0.0 0.0 0.0 0.0 0.0 0.0 0.0 0.0 0.0 0.0 0.0 0.0 0.0 0.0 0.0 0.0 0.0 0.0 0.0 0.0 0.0 0.0 0.0 0.0
0.0 0.0 0.0 0.0 0.0 0.0 0.0 0.0 0.0 0.0 0.0 0.0 0.0 0.0 0.0 0.0 0.0 0.0 0.0 0.0 0.0 0.0 0.0 0.0 0.0 0.0 0.0 0.0 0.0 0.0 0.0 0.0 0.0 0.0 0.0 0.0 0.0 0.0 0.0 0.0 0.0 0.0 0.0 0.0 0.0
0.0 0.0 0.0 0.0 0.0 0.0 0.0 0.0 0.0 0.0 0.0 0.0 0.0 0.0 0.0 0.0 0.0 0.0 0.0 0.0 0.0 0.0 0.0 0.0 0.0 0.0 0.0 0.0 0.0 0.0 0.0 0.0 0.0 0.0 0.0 0.0 0.0 0.0 0.0 0.0 0.0 0.0 0.0 0.0 0.0
0.0 0.0 0.0 0.0 0.0 0.0 0.0 0.0 0.0 0.0 0.0 0.0 0.0 0.0 0.0 0.0 0.0 0.0 0.0 0.0 0.0 0.0 0.0 0.0 0.0 0.0 0.0 0.0 0.0 0.0 0.0 0.0 0.0 0.0 0.0 0.0 0.0 0.0 0.0 0.0 0.0 0.0 0.0 0.0 0.0
0.0 0.0 0.0 0.0 0.0 0.0 0.0 0.0 0.0 0.0 0.0 0.0 0.0 0.0 0.0 0.0 0.0 0.0 0.0 0.0 0.0 0.0 0.0 0.0 0.0 0.0 0.0 0.0 0.0 0.0 0.0 0.0 0.0 0.0 0.0 0.0 0.0 0.0 0.0 0.0 0.0 0.0 0.0 0.0 0.0
0.0 0.0 0.0 0.0 0.0 0.0 0.0 0.0 0.0 0.0 0.0 0.0 0.0 0.0 0.0 0.0 0.0 0.0 0.0 0.0 0.0 0.0 0.0 0.0 0.0 0.0 0.0 0.0 0.0 0.0 0.0 0.0 0.0 0.0 0.0 0.0 0.0 0.0 0.0 0.0 0.0 0.0 0.0 0.0 0.0
0.0 0.0 0.0 0.0 0.0 0.0 0.0 0.0 0.0 0.0 0.0 0.0 0.0 0.0 0.0 0.0 0.0 0.0 0.0 0.0 0.0 0.0 0.0 0.0 0.0 0.0 0.0 0.0 0.0 0.0 0.0 0.0 0.0 0.0 0.0 0.0 0.0 0.0 0.0 0.0 0.0 0.0 0.0 0.0 0.0
0.0 0.0 0.0 0.0 0.0 0.0 0.0 0.0 0.0 0.0 0.0 0.0 0.0 0.1 0.0 0.0 0.0 0.0 0.0 0.0 0.0 0.0 0.0 0.0 0.0 0.0 0.0 0.0 0.0 0.0 0.0 0.0 0.0 0.0 0.0 0.0 0.0 0.0 0.0 0.0 0.0 0.0 0.0 0.0 0.0
0.0 0.0 0.0 0.0 0.0 0.0 0.0 0.0 0.0 0.0 0.0 0.0 0.0 0.0 0.0 0.0 0.0 0.0 0.0 0.0 0.0 0.0 0.0 0.0 0.0 0.0 0.0 0.0 0.0 0.0 0.0 0.0 0.0 0.0 0.0 0.0 0.0 0.0 0.0 0.0 0.0 0.0 0.0 0.0 0.0
0.0 0.0 0.0 0.0 0.0 0.0 0.0 0.0 0.0 0.0 0.7 0.0 0.0 0.0 0.0 0.0 0.0 0.0 0.0 0.0 0.0 0.0 0.0 0.0 0.2 0.0 0.0 0.0 0.0 0.0 0.2 0.0 0.0 0.0 0.0 0.0 0.0 0.0 0.0 0.0 0.0 0.0 0.0 0.0 0.0
0.0 0.0 0.0 0.0 0.0 0.0 0.0 0.0 0.0 0.0 1.6 0.0 0.0 0.0 0.0 0.0 0.0 0.0 0.0 0.0 0.0 0.0 0.0 0.3 0.0 0.0 0.0 0.0 0.0 0.0 0.0 0.0 0.0 0.0 0.0 0.0 0.0 0.0 0.0 0.0 0.0 0.0 0.0 0.0 0.0
0.0 0.0 0.0 0.0 0.0 0.0 0.0 0.0 0.0 0.0 3.6 0.0 0.0 0.0 0.0 0.0 0.0 0.0 0.0 0.0 0.0 0.0 0.6 0.7 0.0 0.2 0.0 0.0 0.0 0.4 0.0 0.0 0.1 0.6 0.9 0.0 0.3 0.0 0.0 0.0 0.0 0.0 0.0 0.0 0.0
0.0 0.0 0.0 0.0 0.0 0.0 0.0 0.0 0.0 0.0 7.5 0.0 0.0 0.0 0.0 0.0 0.0 0.0 0.0 0.0 0.0 0.0 1.4 1.6 0.0 2.2 0.8 0.0 0.0 0.2 0.0 0.0 0.0 0.1 0.2 0.0 1.0 0.0 0.0 0.0 0.0 0.0 0.0 0.0 0.0
0.0 0.0 0.0 0.0 0.0 0.0 0.0 0.0 0.0 5.9 7.2 0.0 0.1 1.0 0.0 0.0 0.0 0.0 0.0 0.0 0.0 0.0 0.0 0.3 0.0 0.0 0.0 0.0 0.0 0.0 0.0 0.0 0.0 0.4 1.8 0.1 0.5 0.0 0.0 1.0 0.0 0.0 0.0 0.0 0.0
0.0 0.0 0.0 0.0 0.0 0.0 0.0 0.0 11.0 10.6 0.0 0.2 0.3 2.4 1.2 0.7 1.6 0.0 0.0 0.0 0.0 0.3 0.4 0.0 0.0 0.0 0.0 0.0 0.0 0.4 0.2 0.9 2.1 1.8 0.4 0.0 0.2 0.0 0.0 0.0 1.7 1.7 0.9 0.0 0.9
0.0 0.0 0.0 0.0 0.0 0.0 0.0 4.2 16.0 1.4 0.1 0.0 0.6 2.2 1.6 1.6 2.1 0.0 0.0 0.0 0.0 0.0 0.0 0.4 1.7 0.0 0.0 0.0 0.8 0.0 0.1 0.0 3.1 1.5 1.0 0.1 0.2 0.5 0.0 0.0 0.0 1.8 5.1 2.7 1.4
0.0 0.0 0.0 0.0 0.0 0.0 0.5 21.0 9.6 1.4 0.0 0.0 0.0 0.7 1.0 0.8 4.0 5.1 3.7 0.5 0.0 0.0 1.9 1.2 1.4 0.0 0.0 0.0 0.0 0.2 0.6 0.0 1.6 1.5 2.2 0.0 0.0 0.0 0.0 0.9 3.4 3.3 4.4 7.0 1.9
0.0 0.0 0.0 0.0 0.0 0.0 14.7 11.4 2.4 0.1 0.0 0.0 0.0 0.1 1.0 0.8 1.2 6.9 3.1 1.6 0.1 0.0 0.0 0.7 0.9 0.0 0.0 0.0 0.0 0.0 0.0 0.3 0.9 4.9 3.5 1.0 1.6 4.0 2.2 1.6 2.9 8.0 5.3 7.4 3.1
0.0 1.9 0.0 0.0 0.0 0.0 26.2 2.1 0.0 0.0 0.0 0.0 0.1 0.4 0.1 0.5 0.4 3.4 3.4 2.0 0.0 0.0 0.0 0.0 1.3 0.3 0.0 2.0 0.0 0.3 0.4 0.7 1.6 1.8 5.7 6.9 6.1 6.9 3.9 2.6 2.9 4.8 10.2 6.2 6.6
0.0 16.5 0.0 0.0 11.8 11.8 11.5 0.2 0.0 0.0 0.0 0.2 0.0 0.0 1.0 1.3 0.5 0.2 1.9 0.5 0.0 0.0 0.7 0.0 0.2 0.8 0.0 0.0 0.0 0.0 0.2 0.3 4.1 4.1 3.7 9.6 15.5 6.0 4.7 4.4 4.1 3.9 9.1 10.0 7.9
4.7 5.1 0.0 0.0 14.7 6.2 0.7 0.9 0.0 0.0 0.0 0.2 0.6 0.4 0.0 1.3 0.7 1.5 0.7 0.0 0.0 0.0 1.2 0.0 1.3 1.3 0.8 0.0 0.0 0.1 0.2 1.0 2.1 2.2 5.6 11.8 15.6 11.8 6.7 5.0 3.9 5.7 5.8 5.7 7.5
0.1 34.8 0.0 0.0 0.9 4.2 2.2 3.1 2.1 0.0 0.0 0.0 0.1 0.0 0.1 0.3 0.2 0.2 1.4 0.0 0.0 0.0 0.0 0.0 0.9 4.5 5.1 5.7 3.5 1.3 0.2 0.2 0.7 4.8 7.2 8.8 16.3 12.6 13.7 13.9 9.1 8.3 9.4 8.1 6.9
14.4 26.9 0.0 26.9 19.8 1.3 3.8 1.6 1.9 2.5 0.0 0.0 0.8 0.4 0.5 2.5 1.3 2.6 1.3 1.3 0.0 0.0 0.0 0.0 2.3 1.2 0.2 0.8 6.1 4.1 0.7 0.6 1.9 0.9 3.0 6.7 5.7 7.5 12.5 13.4 15.4 12.0 10.2 8.5 7.2
56.1 15.8 1.4 0.9 0.2 3.9 3.2 3.1 0.7 1.8 2.9 2.2 1.6 0.2 0.9 2.0 1.7 1.6 1.8 1.4 1.4 0.0 0.0 0.0 3.6 1.0 0.2 0.2 2.6 3.0 0.5 0.3 0.6 1.3 2.9 4.0 3.2 5.8 4.1 0.7 0.8 5.0 7.3 6.0 5.5
0.0 0.0 1.7 2.7 4.7 9.3 6.1 2.3 2.0 0.3 0.0 0.1 0.0 3.0 3.1 1.2 0.0 0.0 0.0 0.0 0.0 1.0 2.0 2.0 7.3 9.9 6.2 0.2 5.6 8.3 7.3 4.9 2.4 2.1 2.4 2.9 3.9 5.9 1.8 0.2 0.1 0.0 0.6 1.4 2.0